Time,TemperatureF,DewpointF,PressureIn,WindDirection,WindDirectionDegrees,WindSpeedMPH,WindSpeedGustMPH,Humidity,HourlyPrecipIn,Conditions,Clouds,dailyrainin,SoftwareType,DateUTC
2013-03-02 00:01:00,30.0,24.0,30.22,West,259,1.0,-999.0,79,-99.99,,,-99.99,,2013-03-02 06:01:00,
2013-03-02 00:11:00,30.0,24.0,30.22,West,259,1.0,-999.0,79,-99.99,,,-99.99,,2013-03-02 06:11:00,
2013-03-02 00:21:00,30.0,24.0,30.22,West,263,2.0,-999.0,79,-99.99,,,-99.99,,2013-03-02 06:21:00,
2013-03-02 00:31:00,30.0,24.0,30.22,WSW,252,1.0,-999.0,79,-99.99,,,-99.99,,2013-03-02 06:31:00,
2013-03-02 00:41:00,30.0,24.0,30.22,WSW,252,1.0,-999.0,79,-99.99,,,-99.99,,2013-03-02 06:41:00,
2013-03-02 00:51:00,30.0,24.0,30.22,WSW,253,2.0,-999.0,79,-99.99,,,-99.99,,2013-03-02 06:51:00,
2013-03-02 01:01:00,30.0,24.0,30.22,West,271,2.0,-999.0,79,-99.99,,,-99.99,,2013-03-02 07:01:00,
2013-03-02 01:11:00,30.0,25.0,30.22,West,269,2.0,-999.0,80,-99.99,,,-99.99,,2013-03-02 07:11:00,
2013-03-02 01:21:00,30.0,25.0,30.22,West,269,2.0,-999.0,80,-99.99,,,-99.99,,2013-03-02 07:21:00,
2013-03-02 01:32:00,30.0,25.0,30.22,West,269,1.0,-999.0,81,-99.99,,,-99.99,,2013-03-02 07:32:00,
2013-03-02 01:42:00,30.0,25.0,30.22,West,269,1.0,-999.0,81,-99.99,,,-99.99,,2013-03-02 07:42:00,
2013-03-02 01:51:00,30.0,25.0,30.22,West,268,2.0,-999.0,81,-99.99,,,-99.99,,2013-03-02 07:51:00,
2013-03-02 02:01:00,30.0,25.0,30.23,West,268,1.0,-999.0,81,-99.99,,,-99.99,,2013-03-02 08:01:00,
2013-03-02 02:11:00,30.0,25.0,30.23,West,268,1.0,-999.0,81,-99.99,,,-99.99,,2013-03-02 08:11:00,
2013-03-02 02:21:00,30.0,25.0,30.23,West,265,1.0,-999.0,81,-99.99,,,-99.99,,2013-03-02 08:21:00,
2013-03-02 02:32:00,30.0,25.0,30.22,West,273,1.0,-999.0,80,-99.99,,,-99.99,,2013-03-02 08:32:00,
2013-03-02 02:42:00,30.0,25.0,30.22,West,273,1.0,-999.0,80,-99.99,,,-99.99,,2013-03-02 08:42:00,
2013-03-02 02:52:00,30.0,25.0,30.22,WNW,287,1.0,-999.0,80,-99.99,,,-99.99,,2013-03-02 08:52:00,
2013-03-02 03:02:00,31.0,25.0,30.22,WNW,290,1.0,-999.0,79,-99.99,,,-99.99,,2013-03-02 09:02:00,
2013-03-02 03:11:00,31.0,24.0,30.21,West,264,2.0,-999.0,76,-99.99,,,-99.99,,2013-03-02 09:11:00,
2013-03-02 03:21:00,31.0,24.0,30.21,West,264,2.0,-999.0,76,-99.99,,,-99.99,,2013-03-02 09:21:00,
2013-03-02 03:32:00,31.0,25.0,30.22,NW,304,2.0,-999.0,77,-99.99,,,-99.99,,2013-03-02 09:32:00,
2013-03-02 03:42:00,31.0,25.0,30.22,NW,304,2.0,-999.0,77,-99.99,,,-99.99,,2013-03-02 09:42:00,
2013-03-02 03:51:00,30.0,23.0,30.21,West,279,1.0,-999.0,76,-99.99,,,-99.99,,2013-03-02 09:51:00,
2013-03-02 04:01:00,30.0,23.0,30.21,West,278,0.0,-999.0,76,-99.99,,,-99.99,,2013-03-02 10:01:00,
2013-03-02 04:15:00,30.0,23.0,30.21,West,278,0.0,-999.0,76,-99.99,,,-99.99,,2013-03-02 10:15:00,
2013-03-02 04:22:00,30.0,24.0,30.21,WNW,290,1.0,-999.0,78,-99.99,,,-99.99,,2013-03-02 10:22:00,
2013-03-02 04:32:00,30.0,24.0,30.22,WNW,303,1.0,-999.0,78,-99.99,,,-99.99,,2013-03-02 10:32:00,
2013-03-02 04:42:00,30.0,24.0,30.22,WNW,303,1.0,-999.0,78,-99.99,,,-99.99,,2013-03-02 10:42:00,
2013-03-02 04:51:00,30.0,24.0,30.21,WNW,302,1.0,-999.0,78,-99.99,,,-99.99,,2013-03-02 10:51:00,
2013-03-02 05:01:00,30.0,24.0,30.22,WNW,303,1.0,-999.0,78,-99.99,,,-99.99,,2013-03-02 11:01:00,
2013-03-02 05:11:00,30.0,24.0,30.22,WNW,303,1.0,-999.0,78,-99.99,,,-99.99,,2013-03-02 11:11:00,
2013-03-02 05:21:00,30.0,24.0,30.22,NNW,338,1.0,-999.0,78,-99.99,,,-99.99,,2013-03-02 11:21:00,
2013-03-02 05:32:00,30.0,24.0,30.22,NNW,327,1.0,-999.0,77,-99.99,,,-99.99,,2013-03-02 11:32:00,
2013-03-02 05:42:00,30.0,24.0,30.22,NNW,327,1.0,-999.0,77,-99.99,,,-99.99,,2013-03-02 11:42:00,
2013-03-02 05:52:00,30.0,23.0,30.23,NNW,333,1.0,-999.0,76,-99.99,,,-99.99,,2013-03-02 11:52:00,
2013-03-02 06:02:00,30.0,23.0,30.24,NNW,336,0.0,-999.0,75,-99.99,,,-99.99,,2013-03-02 12:02:00,
2013-03-02 06:11:00,30.0,23.0,30.24,NNW,336,0.0,-999.0,75,-99.99,,,-99.99,,2013-03-02 12:11:00,
2013-03-02 06:21:00,30.0,22.0,30.24,NNE,16,1.0,-999.0,73,-99.99,,,-99.99,,2013-03-02 12:21:00,
2013-03-02 06:33:00,30.0,22.0,30.24,NNW,339,0.0,-999.0,71,-99.99,,,-99.99,,2013-03-02 12:33:00,
2013-03-02 06:43:00,30.0,22.0,30.24,NNW,339,0.0,-999.0,71,-99.99,,,-99.99,,2013-03-02 12:43:00,
2013-03-02 06:53:00,30.0,21.0,30.25,NW,322,2.0,-999.0,70,-99.99,,,-99.99,,2013-03-02 12:53:00,
2013-03-02 07:01:00,29.0,19.0,30.26,NW,304,3.0,-999.0,67,-99.99,,,-99.99,,2013-03-02 13:01:00,
2013-03-02 07:11:00,29.0,19.0,30.26,NW,304,3.0,-999.0,67,-99.99,,,-99.99,,2013-03-02 13:11:00,
2013-03-02 07:22:00,29.0,19.0,30.27,WNW,297,2.0,-999.0,66,-99.99,,,-99.99,,2013-03-02 13:22:00,
2013-03-02 07:32:00,29.0,19.0,30.27,WNW,300,3.0,-999.0,67,-99.99,,,-99.99,,2013-03-02 13:32:00,
2013-03-02 07:42:00,29.0,19.0,30.27,WNW,300,3.0,-999.0,67,-99.99,,,-99.99,,2013-03-02 13:42:00,
2013-03-02 07:52:00,29.0,19.0,30.28,SW,215,3.0,-999.0,66,-99.99,,,-99.99,,2013-03-02 13:52:00,
2013-03-02 08:01:00,29.0,19.0,30.28,NW,309,2.0,-999.0,65,-99.99,,,-99.99,,2013-03-02 14:01:00,
2013-03-02 08:11:00,29.0,19.0,30.28,NW,309,2.0,-999.0,65,-99.99,,,-99.99,,2013-03-02 14:11:00,
2013-03-02 08:21:00,29.0,19.0,30.29,NNW,337,2.0,-999.0,66,-99.99,,,-99.99,,2013-03-02 14:21:00,
2013-03-02 08:32:00,29.0,20.0,30.29,NE,34,2.0,-999.0,68,-99.99,,,-99.99,,2013-03-02 14:32:00,
2013-03-02 08:42:00,29.0,20.0,30.29,NE,34,2.0,-999.0,68,-99.99,,,-99.99,,2013-03-02 14:42:00,
2013-03-02 08:52:00,29.0,21.0,30.30,North,360,2.0,-999.0,72,-99.99,,,-99.99,,2013-03-02 14:52:00,
2013-03-02 09:02:00,28.0,21.0,30.30,NW,306,2.0,-999.0,74,-99.99,,,-99.99,,2013-03-02 15:02:00,
2013-03-02 09:11:00,28.0,21.0,30.30,NW,306,2.0,-999.0,74,-99.99,,,-99.99,,2013-03-02 15:11:00,
2013-03-02 09:21:00,28.0,22.0,30.30,WNW,294,2.0,-999.0,77,-99.99,,,-99.99,,2013-03-02 15:21:00,
2013-03-02 09:32:00,28.0,22.0,30.30,WNW,294,2.0,-999.0,77,-99.99,,,-99.99,,2013-03-02 15:32:00,
2013-03-02 09:42:00,28.0,22.0,30.30,WNW,294,2.0,-999.0,77,-99.99,,,-99.99,,2013-03-02 15:42:00,
2013-03-02 09:52:00,29.0,19.0,30.31,NNW,344,2.0,-999.0,66,-99.99,,,-99.99,,2013-03-02 15:52:00,
2013-03-02 10:02:00,29.0,18.0,30.30,WNW,288,2.0,-999.0,63,-99.99,,,-99.99,,2013-03-02 16:02:00,
2013-03-02 10:11:00,29.0,18.0,30.30,WNW,288,2.0,-999.0,63,-99.99,,,-99.99,,2013-03-02 16:11:00,
2013-03-02 10:21:00,30.0,17.0,30.30,NNE,24,3.0,-999.0,59,-99.99,,,-99.99,,2013-03-02 16:21:00,
2013-03-02 10:32:00,30.0,17.0,30.31,WNW,283,4.0,-999.0,57,-99.99,,,-99.99,,2013-03-02 16:32:00,
2013-03-02 10:42:00,30.0,17.0,30.31,WNW,283,4.0,-999.0,57,-99.99,,,-99.99,,2013-03-02 16:42:00,
2013-03-02 10:51:00,30.0,17.0,30.30,NW,323,4.0,-999.0,57,-99.99,,,-99.99,,2013-03-02 16:51:00,
2013-03-02 11:01:00,31.0,18.0,30.30,West,267,5.0,-999.0,59,-99.99,,,-99.99,,2013-03-02 17:01:00,
2013-03-02 11:11:00,31.0,18.0,30.30,West,267,5.0,-999.0,59,-99.99,,,-99.99,,2013-03-02 17:11:00,
2013-03-02 11:21:00,30.0,19.0,30.30,West,271,4.0,-999.0,62,-99.99,,,-99.99,,2013-03-02 17:21:00,
2013-03-02 11:32:00,30.0,19.0,30.30,West,269,5.0,-999.0,62,-99.99,,,-99.99,,2013-03-02 17:32:00,
2013-03-02 11:42:00,30.0,19.0,30.30,West,269,5.0,-999.0,62,-99.99,,,-99.99,,2013-03-02 17:42:00,
2013-03-02 11:52:00,31.0,20.0,30.30,North,350,5.0,-999.0,62,-99.99,,,-99.99,,2013-03-02 17:52:00,
2013-03-02 12:02:00,31.0,20.0,30.30,WSW,250,4.0,-999.0,62,-99.99,,,-99.99,,2013-03-02 18:02:00,
2013-03-02 12:11:00,31.0,20.0,30.30,WSW,250,4.0,-999.0,62,-99.99,,,-99.99,,2013-03-02 18:11:00,
2013-03-02 12:22:00,32.0,20.0,30.30,West,273,7.0,-999.0,62,-99.99,,,-99.99,,2013-03-02 18:22:00,
2013-03-02 12:32:00,32.0,19.0,30.29,West,275,6.0,-999.0,59,-99.99,,,-99.99,,2013-03-02 18:32:00,
2013-03-02 12:42:00,32.0,19.0,30.29,West,275,6.0,-999.0,59,-99.99,,,-99.99,,2013-03-02 18:42:00,
2013-03-02 12:52:00,32.0,19.0,30.28,West,261,5.0,-999.0,58,-99.99,,,-99.99,,2013-03-02 18:52:00,
2013-03-02 13:01:00,32.0,17.0,30.28,NW,321,4.0,-999.0,54,-99.99,,,-99.99,,2013-03-02 19:01:00,
2013-03-02 13:11:00,32.0,17.0,30.28,NW,321,4.0,-999.0,54,-99.99,,,-99.99,,2013-03-02 19:11:00,
2013-03-02 13:21:00,33.0,18.0,30.27,SW,236,5.0,-999.0,54,-99.99,,,-99.99,,2013-03-02 19:21:00,
2013-03-02 13:32:00,34.0,20.0,30.27,West,263,7.0,-999.0,55,-99.99,,,-99.99,,2013-03-02 19:32:00,
2013-03-02 13:42:00,34.0,20.0,30.27,West,263,7.0,-999.0,55,-99.99,,,-99.99,,2013-03-02 19:42:00,
2013-03-02 13:52:00,35.0,20.0,30.26,West,271,4.0,-999.0,53,-99.99,,,-99.99,,2013-03-02 19:52:00,
2013-03-02 14:01:00,35.0,19.0,30.25,NW,319,4.0,-999.0,52,-99.99,,,-99.99,,2013-03-02 20:01:00,
2013-03-02 14:11:00,35.0,19.0,30.25,NW,319,4.0,-999.0,52,-99.99,,,-99.99,,2013-03-02 20:11:00,
2013-03-02 14:22:00,35.0,19.0,30.25,West,272,6.0,-999.0,52,-99.99,,,-99.99,,2013-03-02 20:22:00,
2013-03-02 14:32:00,35.0,20.0,30.24,SW,233,7.0,-999.0,53,-99.99,,,-99.99,,2013-03-02 20:32:00,
2013-03-02 14:42:00,35.0,20.0,30.24,SW,233,7.0,-999.0,53,-99.99,,,-99.99,,2013-03-02 20:42:00,
2013-03-02 14:52:00,37.0,21.0,30.24,West,263,6.0,-999.0,53,-99.99,,,-99.99,,2013-03-02 20:52:00,
2013-03-02 15:02:00,36.0,20.0,30.23,West,271,6.0,-999.0,52,-99.99,,,-99.99,,2013-03-02 21:02:00,
2013-03-02 15:11:00,36.0,20.0,30.23,West,271,6.0,-999.0,52,-99.99,,,-99.99,,2013-03-02 21:11:00,
2013-03-02 15:22:00,37.0,21.0,30.24,WSW,237,5.0,-999.0,51,-99.99,,,-99.99,,2013-03-02 21:22:00,
2013-03-02 15:32:00,36.0,20.0,30.24,WSW,243,8.0,-999.0,52,-99.99,,,-99.99,,2013-03-02 21:32:00,
2013-03-02 15:42:00,36.0,20.0,30.24,WSW,243,8.0,-999.0,52,-99.99,,,-99.99,,2013-03-02 21:42:00,
2013-03-02 15:52:00,37.0,21.0,30.23,West,281,6.0,-999.0,52,-99.99,,,-99.99,,2013-03-02 21:52:00,
2013-03-02 16:02:00,37.0,20.0,30.24,WNW,284,6.0,-999.0,49,-99.99,,,-99.99,,2013-03-02 22:02:00,
2013-03-02 16:11:00,37.0,20.0,30.24,WNW,284,6.0,-999.0,49,-99.99,,,-99.99,,2013-03-02 22:11:00,
2013-03-02 16:21:00,37.0,20.0,30.24,WNW,284,6.0,-999.0,49,-99.99,,,-99.99,,2013-03-02 22:21:00,
2013-03-02 16:32:00,37.0,19.0,30.24,WSW,244,6.0,-999.0,48,-99.99,,,-99.99,,2013-03-02 22:32:00,
2013-03-02 16:42:00,37.0,19.0,30.24,WSW,244,6.0,-999.0,48,-99.99,,,-99.99,,2013-03-02 22:42:00,
2013-03-02 16:52:00,37.0,19.0,30.24,WSW,242,6.0,-999.0,48,-99.99,,,-99.99,,2013-03-02 22:52:00,
2013-03-02 17:01:00,38.0,19.0,30.24,West,279,4.0,-999.0,46,-99.99,,,-99.99,,2013-03-02 23:01:00,
2013-03-02 17:11:00,37.0,19.0,30.24,West,276,3.0,-999.0,47,-99.99,,,-99.99,,2013-03-02 23:11:00,
2013-03-02 17:21:00,37.0,19.0,30.24,West,276,3.0,-999.0,47,-99.99,,,-99.99,,2013-03-02 23:21:00,
2013-03-02 17:32:00,37.0,19.0,30.24,WNW,290,3.0,-999.0,48,-99.99,,,-99.99,,2013-03-02 23:32:00,
2013-03-02 17:42:00,37.0,19.0,30.24,WNW,290,3.0,-999.0,48,-99.99,,,-99.99,,2013-03-02 23:42:00,
2013-03-02 17:52:00,37.0,20.0,30.24,West,267,2.0,-999.0,49,-99.99,,,-99.99,,2013-03-02 23:52:00,
2013-03-02 18:02:00,36.0,20.0,30.24,West,263,4.0,-999.0,51,-99.99,,,-99.99,,2013-03-03 00:02:00,
2013-03-02 18:11:00,36.0,20.0,30.24,West,263,4.0,-999.0,51,-99.99,,,-99.99,,2013-03-03 00:11:00,
2013-03-02 18:22:00,36.0,20.0,30.24,WNW,292,2.0,-999.0,51,-99.99,,,-99.99,,2013-03-03 00:22:00,
2013-03-02 18:32:00,35.0,19.0,30.24,WNW,292,0.0,-999.0,52,-99.99,,,-99.99,,2013-03-03 00:32:00,
2013-03-02 18:42:00,35.0,19.0,30.24,WNW,292,0.0,-999.0,52,-99.99,,,-99.99,,2013-03-03 00:42:00,
2013-03-02 18:52:00,34.0,19.0,30.24,WNW,292,0.0,-999.0,54,-99.99,,,-99.99,,2013-03-03 00:52:00,
2013-03-02 19:01:00,33.0,20.0,30.24,WNW,292,0.0,-999.0,58,-99.99,,,-99.99,,2013-03-03 01:01:00,
2013-03-02 19:11:00,33.0,20.0,30.24,WNW,292,0.0,-999.0,58,-99.99,,,-99.99,,2013-03-03 01:11:00,
2013-03-02 19:21:00,31.0,21.0,30.25,WNW,292,0.0,-999.0,65,-99.99,,,-99.99,,2013-03-03 01:21:00,
2013-03-02 19:32:00,30.0,21.0,30.25,WNW,292,0.0,-999.0,69,-99.99,,,-99.99,,2013-03-03 01:32:00,
2013-03-02 19:41:00,30.0,21.0,30.25,WNW,292,0.0,-999.0,69,-99.99,,,-99.99,,2013-03-03 01:41:00,
2013-03-02 19:52:00,28.0,20.0,30.26,WNW,292,0.0,-999.0,71,-99.99,,,-99.99,,2013-03-03 01:52:00,
2013-03-02 20:01:00,27.0,20.0,30.25,WNW,292,0.0,-999.0,73,-99.99,,,-99.99,,2013-03-03 02:01:00,
2013-03-02 20:11:00,27.0,20.0,30.25,WNW,292,0.0,-999.0,73,-99.99,,,-99.99,,2013-03-03 02:11:00,
2013-03-02 20:21:00,27.0,20.0,30.26,WNW,292,0.0,-999.0,74,-99.99,,,-99.99,,2013-03-03 02:21:00,
2013-03-02 20:32:00,26.0,19.0,30.26,WNW,292,0.0,-999.0,73,-99.99,,,-99.99,,2013-03-03 02:32:00,
2013-03-02 20:41:00,26.0,19.0,30.26,WNW,292,0.0,-999.0,73,-99.99,,,-99.99,,2013-03-03 02:41:00,
2013-03-02 20:52:00,26.0,19.0,30.26,WNW,292,0.0,-999.0,73,-99.99,,,-99.99,,2013-03-03 02:52:00,
2013-03-02 21:01:00,25.0,19.0,30.27,WNW,292,0.0,-999.0,77,-99.99,,,-99.99,,2013-03-03 03:01:00,
2013-03-02 21:11:00,25.0,19.0,30.27,WNW,292,0.0,-999.0,77,-99.99,,,-99.99,,2013-03-03 03:11:00,
2013-03-02 21:21:00,25.0,19.0,30.26,WNW,292,0.0,-999.0,78,-99.99,,,-99.99,,2013-03-03 03:21:00,
2013-03-02 21:31:00,24.0,18.0,30.27,WNW,292,0.0,-999.0,77,-99.99,,,-99.99,,2013-03-03 03:31:00,
2013-03-02 21:41:00,24.0,18.0,30.27,WNW,292,0.0,-999.0,77,-99.99,,,-99.99,,2013-03-03 03:41:00,
2013-03-02 21:51:00,24.0,18.0,30.26,WNW,292,0.0,-999.0,77,-99.99,,,-99.99,,2013-03-03 03:51:00,
2013-03-02 22:01:00,23.0,17.0,30.26,WNW,292,0.0,-999.0,77,-99.99,,,-99.99,,2013-03-03 04:01:00,
2013-03-02 22:11:00,23.0,17.0,30.26,WNW,292,0.0,-999.0,77,-99.99,,,-99.99,,2013-03-03 04:11:00,
2013-03-02 22:21:00,23.0,17.0,30.26,WNW,292,0.0,-999.0,78,-99.99,,,-99.99,,2013-03-03 04:21:00,
2013-03-02 22:32:00,23.0,19.0,30.26,WNW,292,0.0,-999.0,86,-99.99,,,-99.99,,2013-03-03 04:32:00,
2013-03-02 22:41:00,23.0,19.0,30.26,WNW,292,0.0,-999.0,86,-99.99,,,-99.99,,2013-03-03 04:41:00,
2013-03-02 22:51:00,22.0,17.0,30.26,WNW,292,0.0,-999.0,80,-99.99,,,-99.99,,2013-03-03 04:51:00,
2013-03-02 23:02:00,22.0,17.0,30.26,WNW,292,0.0,-999.0,82,-99.99,,,-99.99,,2013-03-03 05:02:00,
2013-03-02 23:11:00,22.0,17.0,30.26,WNW,292,0.0,-999.0,82,-99.99,,,-99.99,,2013-03-03 05:11:00,
2013-03-02 23:22:00,22.0,17.0,30.26,WNW,292,0.0,-999.0,81,-99.99,,,-99.99,,2013-03-03 05:22:00,
2013-03-02 23:32:00,21.0,16.0,30.26,WNW,292,0.0,-999.0,82,-99.99,,,-99.99,,2013-03-03 05:32:00,
2013-03-02 23:42:00,21.0,16.0,30.26,WNW,292,0.0,-999.0,82,-99.99,,,-99.99,,2013-03-03 05:42:00,
2013-03-02 23:52:00,21.0,16.0,30.26,WNW,292,0.0,-999.0,82,-99.99,,,-99.99,,2013-03-03 05:52:00,